TimeEDT,TemperatureF,Dew PointF,Humidity,Sea Level PressureIn,VisibilityMPH,Wind Direction,Wind SpeedMPH,Gust SpeedMPH,PrecipitationIn,Events,Conditions,WindDirDegrees,DateUTC
12:53 AM,63.0,60.1,90,30.09,5.0,Calm,Calm,-,N/A,,Clear,0,2013-06-05 04:53:00
1:53 AM,62.1,59.0,90,30.10,7.0,Calm,Calm,-,N/A,,Partly Cloudy,0,2013-06-05 05:53:00
2:53 AM,64.0,60.1,87,30.09,10.0,ENE,3.5,-,N/A,,Mostly Cloudy,70,2013-06-05 06:53:00
3:53 AM,62.1,57.9,86,30.09,9.0,East,4.6,-,N/A,,Clear,80,2013-06-05 07:53:00
4:53 AM,60.1,57.0,90,30.08,9.0,Calm,Calm,-,N/A,,Clear,0,2013-06-05 08:53:00
5:53 AM,61.0,57.0,87,30.10,10.0,Calm,Calm,-,N/A,,Mostly Cloudy,0,2013-06-05 09:53:00
6:34 AM,62.6,57.2,82,30.15,10.0,Calm,Calm,-,N/A,,Mostly Cloudy,0,2013-06-05 10:34:00
6:53 AM,62.1,57.9,86,30.13,9.0,Calm,Calm,-,N/A,,Overcast,0,2013-06-05 10:53:00
7:53 AM,64.9,60.1,84,30.13,10.0,ENE,3.5,-,N/A,,Overcast,70,2013-06-05 11:53:00
8:53 AM,69.1,60.1,73,30.13,10.0,Variable,3.5,-,N/A,,Partly Cloudy,0,2013-06-05 12:53:00
9:53 AM,72.0,59.0,64,30.13,10.0,Variable,5.8,-,N/A,,Clear,0,2013-06-05 13:53:00
10:53 AM,75.0,57.9,55,30.13,10.0,Variable,5.8,-,N/A,,Scattered Clouds,0,2013-06-05 14:53:00
11:53 AM,77.0,59.0,54,30.11,10.0,Variable,3.5,-,N/A,,Overcast,0,2013-06-05 15:53:00
12:53 PM,79.0,57.9,48,30.09,10.0,East,4.6,-,N/A,,Scattered Clouds,80,2013-06-05 16:53:00
1:53 PM,79.0,59.0,50,30.07,10.0,Variable,3.5,-,N/A,,Overcast,0,2013-06-05 17:53:00
2:53 PM,80.1,61.0,52,30.06,10.0,Calm,Calm,-,N/A,,Mostly Cloudy,0,2013-06-05 18:53:00
3:53 PM,78.1,62.1,58,30.05,10.0,SSW,3.5,-,N/A,,Mostly Cloudy,200,2013-06-05 19:53:00
4:53 PM,77.0,63.0,62,30.04,10.0,Calm,Calm,-,N/A,,Mostly Cloudy,0,2013-06-05 20:53:00
5:53 PM,77.0,63.0,62,30.03,10.0,Calm,Calm,-,N/A,,Overcast,0,2013-06-05 21:53:00
6:53 PM,75.9,63.0,64,30.02,10.0,Calm,Calm,-,N/A,,Overcast,0,2013-06-05 22:53:00
7:53 PM,73.0,66.0,79,30.01,10.0,Calm,Calm,-,N/A,,Overcast,0,2013-06-05 23:53:00
8:53 PM,72.0,66.0,81,30.02,10.0,SSW,4.6,-,N/A,,Overcast,210,2013-06-06 00:53:00
9:53 PM,73.0,66.0,79,30.03,10.0,Calm,Calm,-,N/A,,Overcast,0,2013-06-06 01:53:00
10:53 PM,71.1,66.0,84,30.03,10.0,Calm,Calm,-,N/A,,Overcast,0,2013-06-06 02:53:00
11:53 PM,71.1,63.0,75,30.02,10.0,ESE,3.5,-,N/A,,Mostly Cloudy,110,2013-06-06 03:53:00